DW6623 Weather Reports


time (UTC)temp
F
wind
direction
speed
knots
gust
knots
rain 1hr
in
rain 24hr
in
rain mn
in
humidity
%
barometer
mb
20260506122029 56 13 5.2 9.6 0.02 0.04 0.04 92 1011.8
20260506121549 56 306 5.2 10.4 0.03 0.04 0.04 92 1011.7
20260506121028 56 355 4.3 13.0 0.03 0.04 0.04 92 1011.7
20260506120528 56 360 7.0 13.0 0.03 0.04 0.04 92 1011.8
20260506120044 56 30 6.1 11.3 0.03 0.04 0.04 92 1011.5
20260506115528 56 323 5.2 10.4 0.02 0.03 0.03 92 1011.4
20260506115028 57 325 6.1 10.4 0.02 0.03 0.03 92 1011.5
20260506114545 57 315 6.1 10.4 0.01 0.02 0.02 92 1011.3
20260506114028 57 350 5.2 10.4 0.02 0.02 0.02 92 1011.2
20260506113526 57 5 6.1 11.3 0.02 0.02 0.02 92 1011.0
20260506113044 57 317 5.2 11.3 0.02 0.02 0.02 92 1011.1
20260506112531 57 344 4.3 10.4 0.02 0.02 0.02 92 1011.0
20260506112028 57 348 5.2 9.6 0.02 0.02 0.02 92 1010.9
20260506111541 58 336 6.1 10.4 0.01 0.01 0.01 92 1010.9
20260506111029 58 331 5.2 11.3 0.01 0.01 0.01 92 1010.9
20260506110529 58 331 6.1 11.3 0.01 0.01 0.01 92 1010.6
20260506110042 58 338 6.1 10.4 0.01 0.01 0.01 91 1010.6
20260506105529 58 306 7.0 11.3 0.01 0.01 0.01 91 1010.4
20260506105026 58 5 7.0 11.3 0.01 0.01 0.01 91 1010.5
20260506104540 59 333 6.1 11.3 0.01 0.01 0.01 91 1010.3
20260506104026 59 360 3.5 10.4 0.00 0.00 0.00 91 1010.3
20260506103532 59 350 6.1 10.4 0.00 0.00 0.00 91 1010.3
20260506103052 59 324 4.3 10.4 0.00 0.00 0.00 90 1010.0
20260506102526 59 325 4.3 13.0 0.00 0.00 0.00 90 1009.8
20260506102029 59 360 5.2 13.0 0.00 0.00 0.00 90 1009.7
20260506101545 60 344 5.2 11.3 0.00 0.00 0.00 90 1009.7
20260506101031 60 351 7.0 11.3 0.00 0.00 0.00 89 1009.7
20260506100531 60 351 7.0 11.3 0.00 0.00 0.00 89 1009.6
20260506100043 60 336 5.2 9.6 0.00 0.00 0.00 89 1009.7
20260506095528 61 337 3.5 10.4 0.00 0.00 0.00 89 1009.6
20260506095028 61 338 5.2 11.3 0.00 0.00 0.00 89 1009.6
20260506094604 61 340 5.2 11.3 0.00 0.00 0.00 88 1009.4
20260506094026 62 342 6.1 11.3 0.00 0.00 0.00 87 1009.6
20260506093528 62 13 5.2 9.6 0.00 0.00 0.00 87 1009.4
20260506093046 63 348 5.2 9.6 0.00 0.00 0.00 87 1009.2
20260506092526 63 346 5.2 8.7 0.00 0.00 0.00 87 1009.2
20260506092026 63 336 4.3 8.7 0.00 0.00 0.00 86 1009.1
20260506091545 64 319 4.3 9.6 0.00 0.00 0.00 86 1009.2
20260506091026 64 350 4.3 9.6 0.00 0.00 0.00 85 1009.0
20260506090525 64 345 5.2 9.6 0.00 0.00 0.00 85 1009.1
20260506090049 65 327 5.2 9.6 0.00 0.00 0.00 84 1009.0
20260506085528 66 14 4.3 9.6 0.00 0.00 0.00 85 1009.1
20260506085028 66 29 4.3 8.7 0.00 0.00 0.00 85 1009.1
20260506084558 67 338 4.3 8.7 0.00 0.00 0.00 85 1009.0
20260506084029 67 360 3.5 7.8 0.00 0.00 0.00 85 1009.1
20260506083528 68 346 3.5 7.8 0.00 0.00 0.00 85 1009.0
20260506083044 68 5 3.5 7.8 0.00 0.00 0.00 85 1008.9
20260506082528 68 15 3.5 8.7 0.00 0.00 0.00 84 1008.9
20260506082027 69 326 4.3 8.7 0.00 0.00 0.00 84 1008.9
20260506081546 69 5 3.5 8.7 0.00 0.00 0.00 83 1009.0
20260506081028 69 326 3.5 8.7 0.00 0.00 0.00 83 1008.9
20260506080529 69 355 4.3 8.7 0.00 0.00 0.00 82 1008.8
20260506073527 71 323 2.6 9.6 0.00 0.00 0.00 82 1008.8
20260506073052 71 15 5.2 9.6 0.00 0.00 0.00 81 1009.0
20260506072529 72 325 4.3 7.8 0.00 0.00 0.00 81 1009.0
20260506072028 73 333 3.5 5.2 0.00 0.00 0.00 81 1009.0
20260506071540 73 333 2.6 5.2 0.00 0.00 0.00 81 1008.8
20260506071029 74 350 1.7 4.3 0.00 0.00 0.00 81 1008.9
20260506070526 75 317 2.6 4.3 0.00 0.00 0.00 83 1008.9
20260506062028 76 217 3.5 7.8 0.00 0.00 0.00 87 1008.7
20260506061555 76 241 2.6 7.8 0.00 0.00 0.00 87 1008.7
20260506061030 76 209 0.9 4.3 0.00 0.00 0.00 87 1008.9
20260506060532 76 223 1.7 4.3 0.00 0.00 0.00 87 1008.9
20260506051025 76 205 2.6 5.2 0.00 0.00 0.00 86 1008.4
20260506050529 76 225 2.6 5.2 0.00 0.00 0.00 85 1008.4
20260506045030 76 198 1.7 6.1 0.00 0.00 0.00 85 1008.1
20260506044547 76 209 2.6 5.2 0.00 0.00 0.00 85 1008.2
20260506044028 77 0 1.7 5.2 0.00 0.00 0.00 85 1008.2
20260506043528 77 200 2.6 4.3 0.00 0.00 0.00 85 1008.1
20260506043042 77 183 1.7 5.2 0.00 0.00 0.00 85 1008.2
20260506042526 77 193 0.0 7.0 0.00 0.00 0.00 85 1008.2
20260506042026 76 199 2.6 7.0 0.00 0.00 0.00 85 1008.0
20260506041548 76 171 3.5 7.0 0.00 0.00 0.00 85 1007.8
20260506041025 76 147 3.5 7.0 0.00 0.00 0.00 85 1007.6
20260506040525 76 136 3.5 7.0 0.00 0.00 0.00 84 1007.6
20260506040051 77 150 3.5 6.1 0.00 0.00 0.00 84 1007.7
20260506035527 77 160 2.6 6.1 0.00 0.00 0.00 84 1007.8
20260506035030 77 171 2.6 6.1 0.00 0.00 0.00 83 1007.8
20260506034548 77 182 1.7 4.3 0.00 0.00 0.00 83 1007.7
20260506034049 77 152 1.7 4.3 0.00 0.00 0.00 83 1007.7
20260506033525 77 180 1.7 4.3 0.00 0.00 0.00 83 1007.6
20260506033046 77 186 2.6 7.0 0.00 0.00 0.00 83 1007.4
20260506032528 77 165 2.6 7.0 0.00 0.00 0.00 83 1007.4
20260506032027 77 144 1.7 4.3 0.00 0.00 0.00 82 1007.0
20260506031550 77 140 0.9 6.1 0.00 0.00 0.00 82 1006.9
20260506031026 77 153 2.6 6.1 0.00 0.00 0.00 82 1007.0
20260506030525 77 180 2.6 6.1 0.00 0.00 0.00 82 1006.8
20260506030050 78 161 1.7 6.1 0.00 0.00 0.00 82 1006.6
20260506025526 77 175 2.6 6.1 0.00 0.00 0.00 82 1006.4
20260506025025 78 167 2.6 6.1 0.00 0.00 0.00 82 1006.3
20260506024557 78 184 2.6 6.1 0.00 0.00 0.00 82 1006.4
20260506024025 78 171 2.6 7.0 0.00 0.00 0.00 82 1006.2
20260506023529 78 161 3.5 7.0 0.00 0.00 0.00 81 1005.9
20260506023042 78 139 3.5 7.0 0.00 0.00 0.00 81 1005.9
20260506022530 78 150 2.6 6.1 0.00 0.00 0.00 81 1005.9
20260506022029 78 142 2.6 7.0 0.00 0.00 0.00 80 1005.9
20260506021558 78 148 2.6 7.0 0.00 0.00 0.00 80 1005.9
20260506021028 78 147 3.5 7.0 0.00 0.00 0.00 79 1006.0
20260506020525 79 146 2.6 7.0 0.00 0.00 0.00 79 1005.9
20260506020046 79 141 2.6 6.1 0.00 0.00 0.00 79 1005.8
20260506015531 79 161 3.5 7.8 0.00 0.00 0.00 78 1005.8
20260506015026 79 148 1.7 8.7 0.00 0.00 0.00 78 1005.7
20260506014544 79 154 3.5 9.6 0.00 0.00 0.00 78 1005.7
20260506014030 79 167 3.5 9.6 0.00 0.00 0.00 78 1005.6
20260506013528 80 157 3.5 6.1 0.00 0.00 0.00 77 1005.7
20260506013054 80 145 2.6 6.1 0.00 0.00 0.00 77 1005.7
20260506012528 80 139 2.6 6.1 0.00 0.00 0.00 76 1005.6
20260506012029 80 153 2.6 7.0 0.00 0.00 0.00 76 1005.7
20260506011545 81 144 3.5 7.0 0.00 0.00 0.00 75 1005.7
20260506011031 81 178 3.5 7.0 0.00 0.00 0.00 75 1005.8
20260506010528 81 178 3.5 8.7 0.00 0.00 0.00 75 1005.6
20260506010040 81 200 2.6 10.4 0.00 0.00 0.00 75 1005.6
20260506005529 81 199 4.3 12.2 0.00 0.00 0.00 74 1005.5
20260506005029 82 185 6.1 13.9 0.00 0.00 0.00 74 1005.4
20260506004543 82 171 5.2 13.9 0.00 0.00 0.00 74 1005.3
20260506004027 82 163 7.0 13.9 0.00 0.00 0.00 73 1005.2
20260506003532 82 150 6.1 13.0 0.00 0.00 0.00 73 1005.3
20260506003048 82 187 7.0 13.0 0.00 0.00 0.00 73 1005.3
20260506002529 82 184 7.0 13.0 0.00 0.00 0.00 72 1005.1
20260506002028 82 193 7.8 13.9 0.00 0.00 0.00 72 1005.1
20260506001549 83 188 7.8 18.2 0.00 0.00 0.00 71 1005.3
20260506001027 83 209 8.7 18.2 0.00 0.00 0.00 71 1005.2
20260506000529 83 169 7.0 13.9 0.00 0.00 0.00 71 1005.3
20260506000047 83 200 7.8 16.5 0.00 0.00 0.00 70 1005.5
20260505235533 83 180 8.7 17.4 0.00 0.00 0.00 71 1005.4
20260505235030 83 194 10.4 17.4 0.00 0.00 0.00 70 1005.3
20260505234545 84 176 6.1 15.6 0.00 0.00 0.00 70 1005.2
20260505234029 83 191 6.1 16.5 0.00 0.00 0.00 70 1005.3
20260505233527 83 159 9.6 17.4 0.00 0.00 0.00 70 1005.3
20260505233045 83 150 8.7 17.4 0.00 0.00 0.00 70 1005.2
20260505232531 83 189 8.7 15.6 0.00 0.00 0.00 71 1005.1
20260505232036 83 198 7.8 19.1 0.00 0.00 0.00 70 1004.8
20260505231603 83 198 8.7 19.1 0.00 0.00 0.00 70 1004.9
20260505231028 83 160 9.6 16.5 0.00 0.00 0.00 70 1004.9
20260505230528 84 207 7.8 16.5 0.00 0.00 0.00 70 1005.0
20260505230051 84 191 7.0 15.6 0.00 0.00 0.00 70 1004.9
20260505225529 84 173 6.1 15.6 0.00 0.00 0.00 70 1004.9
20260505225029 83 196 7.0 16.5 0.00 0.00 0.00 71 1005.0
20260505224546 83 180 7.8 16.5 0.00 0.00 0.00 71 1004.9
20260505224029 83 191 7.8 15.6 0.00 0.00 0.00 70 1005.1
20260505223528 83 186 7.0 15.6 0.00 0.00 0.00 70 1005.1
20260505223050 83 159 7.0 18.2 0.00 0.00 0.00 70 1004.8
20260505222529 83 192 7.8 18.2 0.00 0.00 0.00 71 1005.1
20260505222029 83 156 8.7 20.0 0.00 0.00 0.00 70 1004.8
20260505221551 83 148 8.7 20.0 0.00 0.00 0.00 70 1004.6
20260505221027 83 168 10.4 19.1 0.00 0.00 0.00 70 1004.6
20260505220528 83 165 7.8 22.6 0.00 0.00 0.00 69 1004.7
20260505220051 83 177 9.6 22.6 0.00 0.00 0.00 70 1004.8
20260505215528 83 176 9.6 19.1 0.00 0.00 0.00 70 1004.9
20260505215028 83 184 10.4 20.9 0.00 0.00 0.00 70 1004.9
20260505214603 83 170 10.4 21.7 0.00 0.00 0.00 71 1005.1
20260505214028 83 192 10.4 23.5 0.00 0.00 0.00 70 1005.0
20260505213528 83 180 10.4 23.5 0.00 0.00 0.00 69 1005.1
20260505213040 84 164 11.3 21.7 0.00 0.00 0.00 69 1005.3
20260505212528 84 179 8.7 19.1 0.00 0.00 0.00 68 1005.3
20260505212029 84 192 9.6 19.1 0.00 0.00 0.00 69 1005.4
20260505211539 85 177 8.7 15.6 0.00 0.00 0.00 68 1005.4
20260505211028 85 169 7.0 15.6 0.00 0.00 0.00 68 1005.6
20260505210528 84 175 7.8 15.6 0.00 0.00 0.00 68 1005.7
20260505210045 84 159 7.8 17.4 0.00 0.00 0.00 69 1005.7
20260505205530 84 165 9.6 19.1 0.00 0.00 0.00 69 1005.8
20260505205027 84 157 9.6 19.1 0.00 0.00 0.00 69 1005.8
20260505204547 83 177 7.0 11.3 0.00 0.00 0.00 70 1005.9
20260505204028 83 200 6.1 15.6 0.00 0.00 0.00 71 1006.0
20260505203528 83 182 7.8 18.2 0.00 0.00 0.00 71 1006.0
20260505203043 83 145 9.6 23.5 0.00 0.00 0.00 70 1006.2
20260505202530 83 190 13.0 23.5 0.00 0.00 0.00 69 1005.9
20260505202028 83 200 6.1 16.5 0.00 0.00 0.00 69 1005.9
20260505201539 83 188 9.6 21.7 0.00 0.00 0.00 70 1005.9
20260505201027 82 170 8.7 21.7 0.00 0.00 0.00 70 1005.8
20260505200529 82 194 12.2 21.7 0.00 0.00 0.00 70 1005.9
20260505200056 83 154 11.3 23.5 0.00 0.00 0.00 70 1005.9
20260505195527 83 167 10.4 23.5 0.00 0.00 0.00 70 1005.9
20260505195028 83 195 10.4 20.9 0.00 0.00 0.00 70 1006.0
20260505194545 82 191 8.7 24.3 0.00 0.00 0.00 71 1006.0
20260505194029 82 191 13.0 24.3 0.00 0.00 0.00 72 1006.4
20260505193528 81 189 11.3 22.6 0.00 0.00 0.00 71 1006.4
20260505193045 81 182 9.6 20.0 0.00 0.00 0.00 72 1006.6
20260505192528 81 180 11.3 20.0 0.00 0.00 0.00 71 1006.6
20260505192027 82 174 10.4 20.0 0.00 0.00 0.00 72 1006.5
20260505191546 82 179 7.8 20.0 0.00 0.00 0.00 71 1006.5
20260505191028 82 202 7.0 20.0 0.00 0.00 0.00 71 1006.5
20260505190527 82 203 7.8 20.0 0.00 0.00 0.00 72 1006.5
20260505190041 81 207 9.6 19.1 0.00 0.00 0.00 72 1006.5
20260505185528 81 203 9.6 22.6 0.00 0.00 0.00 73 1006.4
20260505185033 81 181 10.4 22.6 0.00 0.00 0.00 73 1006.5
20260505184545 81 159 8.7 21.7 0.00 0.00 0.00 72 1006.5
20260505184031 80 159 5.2 21.7 0.00 0.00 0.00 74 1006.7
20260505183528 80 189 11.3 22.6 0.00 0.00 0.00 74 1006.7
20260505183055 80 165 10.4 22.6 0.00 0.00 0.00 73 1006.7
20260505182527 80 172 10.4 25.2 0.00 0.00 0.00 73 1006.7
20260505182026 80 200 10.4 25.2 0.00 0.00 0.00 73 1006.9
20260505181550 80 177 13.0 25.2 0.00 0.00 0.00 74 1006.9
20260505181027 79 177 15.6 26.9 0.00 0.00 0.00 74 1006.8
20260505180528 79 208 12.2 26.9 0.00 0.00 0.00 75 1007.0
20260505180050 79 166 10.4 24.3 0.00 0.00 0.00 76 1007.0
20260505175526 78 182 12.2 24.3 0.00 0.00 0.00 76 1007.2
20260505175029 78 146 10.4 29.5 0.00 0.00 0.00 76 1007.3
20260505174545 78 193 12.2 29.5 0.00 0.00 0.00 76 1007.4
20260505174027 78 211 13.0 22.6 0.00 0.00 0.00 76 1007.4
20260505173526 78 173 7.8 20.0 0.00 0.00 0.00 77 1007.4
20260505173045 78 163 10.4 20.0 0.00 0.00 0.00 77 1007.3
20260505172526 78 181 11.3 19.1 0.00 0.00 0.00 77 1007.1
20260505172029 78 198 9.6 20.0 0.00 0.00 0.00 77 1006.9
20260505171549 77 220 9.6 25.2 0.00 0.00 0.00 77 1006.9
20260505171030 77 201 9.6 25.2 0.00 0.00 0.00 77 1006.9
20260505170529 77 170 11.3 24.3 0.00 0.00 0.00 77 1007.0
20260505170045 77 175 15.6 24.3 0.00 0.00 0.00 77 1007.0
20260505165529 77 170 9.6 19.1 0.00 0.00 0.00 77 1007.0
20260505165029 77 199 9.6 23.5 0.00 0.00 0.00 77 1006.9
20260505164546 77 213 11.3 24.3 0.00 0.00 0.00 77 1007.0
20260505164028 77 188 10.4 24.3 0.00 0.00 0.00 78 1007.0
20260505163529 77 206 11.3 23.5 0.00 0.00 0.00 78 1007.0
20260505163046 77 180 11.3 23.5 0.00 0.00 0.00 78 1007.0
20260505162527 76 214 8.7 21.7 0.00 0.00 0.00 79 1007.1
20260505162027 76 238 11.3 22.6 0.00 0.00 0.00 78 1007.2
20260505161543 76 208 10.4 23.5 0.00 0.00 0.00 79 1007.1
20260505161029 76 173 13.0 26.1 0.00 0.00 0.00 80 1007.1
20260505160530 76 153 13.9 26.1 0.00 0.00 0.00 79 1007.1
20260505153045 75 194 13.0 30.4 0.00 0.00 0.00 80 1007.2
20260505152528 74 157 13.9 30.4 0.00 0.00 0.00 81 1007.2
20260505152029 74 205 12.2 26.9 0.00 0.00 0.00 81 1007.2
20260505151551 74 206 11.3 26.9 0.00 0.00 0.00 81 1007.1
20260505151027 74 196 10.4 26.1 0.00 0.00 0.00 81 1007.2
20260505150529 74 167 11.3 26.1 0.00 0.00 0.00 81 1007.3
20260505140527 73 181 11.3 25.2 0.00 0.00 0.00 82 1007.1
20260505140108 73 211 13.0 23.5 0.00 0.00 0.00 82 1006.9
20260505125028 71 153 9.6 22.6 0.00 0.00 0.00 84 1006.8
20260505124547 71 206 11.3 22.6 0.00 0.00 0.00 84 1006.7
20260505124029 71 165 7.0 17.4 0.00 0.00 0.00 84 1006.7
20260505123529 71 165 10.4 17.4 0.00 0.00 0.00 84 1006.5
20260505123049 71 196 8.7 17.4 0.00 0.00 0.00 85 1006.5
20260505122529 71 206 7.0 16.5 0.00 0.00 0.00 85 1006.5